QPF
0.00 0.00 0.00 0.00 0.00 0.00 0.00 0.00 0.00 0.00 0.00 0.00 0.01 0.01 0.01 0.01 0.01 0.01 0.01 0.01 0.01 0.02 0.03 0.05 0.06 0.09 0.06 0.05 0.05 0.04 0.04 0.05 0.04 0.04 0.05 0.06 0.06 0.07 0.07 0.07 0.08 0.07 0.06 0.07 0.07 0.05 0.05 0.05 0.05
0.00 0.00 0.00 0.00 0.00 0.00 0.00 0.00 0.00 0.00 0.00 0.00 0.00 0.01 0.01 0.01 0.01 0.01 0.02 0.01 0.01 0.01 0.02 0.02 0.04 0.07 0.07 0.06 0.06 0.05 0.05 0.05 0.05 0.04 0.04 0.05 0.05 0.06 0.08 0.08 0.08 0.07 0.05 0.06 0.06 0.06 0.05 0.05 0.04
0.00 0.00 0.00 0.00 0.00 0.00 0.00 0.00 0.00 0.00 0.00 0.00 0.00 0.01 0.01 0.00 0.00 0.01 0.01 0.01 0.01 0.01 0.01 0.02 0.04 0.05 0.06 0.05 0.04 0.05 0.05 0.04 0.05 0.05 0.05 0.04 0.04 0.04 0.05 0.06 0.07 0.07 0.05 0.05 0.07 0.07 0.05 0.04 0.04
0.00 0.00 0.00 0.00 0.00 0.00 0.00 0.00 0.00 0.00 0.00 0.00 0.00 0.00 0.00 0.00 0.00 0.00 0.00 0.00 0.01 0.01 0.01 0.02 0.04 0.04 0.04 0.04 0.03 0.03 0.04 0.04 0.05 0.05 0.05 0.05 0.04 0.04 0.04 0.05 0.05 0.05 0.06 0.04 0.06 0.07 0.06 0.05 0.03
0.00 0.00 0.00 0.00 0.00 0.00 0.00 0.00 0.00 0.00 0.00 0.00 0.00 0.00 0.00 0.00 0.00 0.00 0.00 0.00 0.01 0.01 0.01 0.02 0.02 0.03 0.04 0.04 0.02 0.02 0.03 0.04 0.04 0.04 0.04 0.05 0.05 0.04 0.04 0.04 0.05 0.05 0.05 0.05 0.05 0.06 0.06 0.06 0.04
0.00 0.00 0.00 0.00 0.00 0.00 0.00 0.00 0.00 0.00 0.00 0.00 0.00 0.00 0.00 0.00 0.00 0.00 0.00 0.00 0.01 0.00 0.01 0.01 0.02 0.02 0.04 0.03 0.02 0.03 0.03 0.03 0.04 0.04 0.03 0.04 0.04 0.04 0.04 0.04 0.05 0.04 0.05 0.05 0.05 0.04 0.04 0.04 0.02
0.00 0.00 0.00 0.00 0.00 0.00 0.00 0.00 0.00 0.00 0.00 0.00 0.00 0.00 0.00 0.00 0.00 0.00 0.00 0.00 0.01 0.01 0.01 0.01 0.01 0.01 0.02 0.03 0.02 0.03 0.02 0.02 0.03 0.03 0.03 0.03 0.02 0.03 0.03 0.03 0.04 0.04 0.04 0.04 0.06 0.04 0.03 0.03 0.02
0.00 0.00 0.00 0.00 0.00 0.00 0.00 0.00 0.00 0.00 0.00 0.00 0.00 0.00 0.00 0.00 0.00 0.00 0.00 0.01 0.01 0.01 0.01 0.01 0.01 0.01 0.01 0.01 0.01 0.01 0.01 0.01 0.02 0.02 0.02 0.02 0.03 0.03 0.03 0.03 0.04 0.03 0.04 0.04 0.05 0.05 0.04 0.03 0.01
0.00 0.00 0.00 0.00 0.00 0.00 0.00 0.00 0.00 0.00 0.00 0.00 0.00 0.00 0.00 0.00 0.00 0.00 0.01 0.02 0.02 0.02 0.01 0.01 0.01 0.01 0.01 0.01 0.01 0.01 0.00 0.00 0.01 0.02 0.03 0.02 0.03 0.04 0.03 0.04 0.04 0.03 0.03 0.04 0.05 0.05 0.05 0.04 0.02
0.00 0.00 0.00 0.00 0.00 0.00 0.00 0.01 0.00 0.00 0.00 0.00 0.00 0.00 0.00 0.00 0.00 0.00 0.01 0.01 0.02 0.03 0.03 0.02 0.01 0.01 0.02 0.02 0.01 0.00 0.00 0.00 0.00 0.01 0.03 0.04 0.03 0.04 0.04 0.05 0.05 0.04 0.04 0.04 0.05 0.06 0.05 0.04 0.02
0.00 0.00 0.00 0.00 0.00 0.00 0.00 0.00 0.00 0.00 0.00 0.00 0.00 0.00 0.00 0.00 0.01 0.00 0.00 0.01 0.01 0.02 0.02 0.02 0.02 0.01 0.02 0.02 0.01 0.01 0.00 0.00 0.00 0.00 0.01 0.04 0.06 0.05 0.05 0.05 0.05 0.05 0.05 0.04 0.05 0.06 0.05 0.04 0.02
0.00 0.00 0.00 0.00 0.00 0.00 0.00 0.00 0.00 0.00 0.00 0.00 0.00 0.00 0.00 0.00 0.00 0.01 0.01 0.01 0.01 0.02 0.02 0.02 0.03 0.02 0.02 0.03 0.03 0.02 0.01 0.00 0.00 0.00 0.01 0.02 0.05 0.08 0.08 0.08 0.06 0.06 0.05 0.04 0.04 0.06 0.06 0.05 0.03
0.00 0.00 0.00 0.00 0.00 0.00 0.00 0.00 0.00 0.00 0.00 0.00 0.00 0.00 0.00 0.00 0.01 0.01 0.01 0.01 0.01 0.02 0.03 0.03 0.03 0.03 0.02 0.02 0.03 0.03 0.01 0.01 0.00 0.00 0.01 0.03 0.04 0.05 0.07 0.10 0.10 0.08 0.07 0.05 0.05 0.06 0.06 0.05 0.04
0.00 0.00 0.00 0.00 0.00 0.00 0.00 0.00 0.00 0.00 0.00 0.00 0.00 0.01 0.01 0.01 0.01 0.01 0.01 0.01 0.01 0.02 0.02 0.03 0.03 0.02 0.02 0.02 0.02 0.03 0.01 0.01 0.00 0.00 0.01 0.03 0.05 0.05 0.05 0.06 0.08 0.08 0.08 0.08 0.06 0.06 0.07 0.07 0.06
0.00 0.00 0.00 0.00 0.00 0.00 0.00 0.00 0.00 0.00 0.00 0.00 0.01 0.01 0.02 0.01 0.01 0.01 0.01 0.01 0.02 0.02 0.02 0.02 0.02 0.02 0.02 0.02 0.02 0.02 0.02 0.01 0.01 0.01 0.01 0.03 0.05 0.05 0.04 0.05 0.07 0.06 0.07 0.09 0.09 0.07 0.08 0.10 0.08
0.00 0.00 0.00 0.00 0.00 0.00 0.00 0.00 0.00 0.00 0.01 0.00 0.01 0.01 0.01 0.01 0.01 0.01 0.01 0.01 0.01 0.02 0.02 0.01 0.01 0.01 0.01 0.02 0.02 0.02 0.02 0.02 0.01 0.01 0.02 0.03 0.04 0.05 0.03 0.04 0.05 0.05 0.06 0.09 0.09 0.08 0.07 0.09 0.10
0.00 0.00 0.00 0.00 0.00 0.00 0.00 0.00 0.00 0.00 0.01 0.00 0.00 0.01 0.01 0.01 0.01 0.01 0.01 0.01 0.01 0.01 0.01 0.01 0.01 0.02 0.02 0.02 0.02 0.02 0.02 0.02 0.02 0.02 0.02 0.03 0.04 0.05 0.03 0.04 0.06 0.06 0.07 0.08 0.09 0.10 0.08 0.07 0.07
0.01 0.00 0.00 0.00 0.00 0.00 0.00 0.00 0.00 0.00 0.01 0.00 0.00 0.00 0.01 0.01 0.01 0.01 0.01 0.01 0.01 0.00 0.01 0.01 0.01 0.02 0.04 0.04 0.04 0.03 0.03 0.03 0.03 0.03 0.04 0.04 0.05 0.06 0.04 0.04 0.05 0.07 0.07 0.08 0.10 0.10 0.10 0.08 0.07
0.02 0.01 0.00 0.00 0.00 0.00 0.00 0.00 0.00 0.00 0.01 0.01 0.00 0.00 0.01 0.01 0.01 0.01 0.02 0.02 0.01 0.00 0.01 0.01 0.02 0.02 0.02 0.03 0.03 0.03 0.03 0.03 0.03 0.02 0.04 0.05 0.06 0.06 0.05 0.04 0.04 0.06 0.07 0.08 0.09 0.11 0.13 0.11 0.09
0.01 0.01 0.01 0.00 0.00 0.00 0.00 0.00 0.00 0.01 0.01 0.01 0.00 0.00 0.00 0.01 0.02 0.02 0.02 0.02 0.01 0.01 0.01 0.01 0.02 0.02 0.03 0.03 0.03 0.03 0.03 0.03 0.03 0.02 0.02 0.03 0.04 0.04 0.04 0.04 0.04 0.05 0.06 0.08 0.08 0.09 0.12 0.14 0.12
0.01 0.02 0.01 0.00 0.00 0.00 0.00 0.00 0.01 0.01 0.01 0.02 0.01 0.01 0.01 0.01 0.02 0.02 0.01 0.01 0.01 0.01 0.01 0.01 0.01 0.01 0.02 0.03 0.03 0.03 0.03 0.03 0.04 0.03 0.01 0.01 0.02 0.03 0.03 0.04 0.04 0.05 0.06 0.08 0.09 0.08 0.09 0.12 0.13
0.01 0.01 0.01 0.00 0.00 0.00 0.00 0.00 0.01 0.01 0.02 0.03 0.03 0.02 0.02 0.01 0.01 0.01 0.01 0.01 0.00 0.00 0.00 0.01 0.01 0.01 0.02 0.03 0.02 0.03 0.03 0.03 0.03 0.04 0.03 0.01 0.01 0.01 0.01 0.02 0.04 0.06 0.05 0.06 0.07 0.08 0.08 0.09 0.11
0.00 0.00 0.01 0.01 0.00 0.00 0.00 0.01 0.01 0.01 0.02 0.03 0.04 0.03 0.02 0.02 0.02 0.02 0.01 0.01 0.00 0.00 0.01 0.01 0.01 0.01 0.01 0.02 0.03 0.02 0.02 0.02 0.02 0.03 0.04 0.03 0.02 0.01 0.01 0.02 0.02 0.04 0.05 0.04 0.05 0.06 0.07 0.07 0.07
0.00 0.00 0.00 0.02 0.02 0.01 0.01 0.01 0.01 0.02 0.02 0.03 0.04 0.03 0.02 0.03 0.03 0.03 0.02 0.02 0.01 0.01 0.01 0.01 0.01 0.01 0.01 0.02 0.02 0.02 0.02 0.02 0.02 0.02 0.02 0.03 0.03 0.02 0.02 0.02 0.02 0.03 0.05 0.05 0.04 0.04 0.06 0.06 0.06
0.00 0.01 0.01 0.02 0.05 0.04 0.01 0.00 0.01 0.01 0.02 0.04 0.04 0.03 0.02 0.02 0.02 0.02 0.02 0.02 0.02 0.02 0.01 0.01 0.02 0.02 0.02 0.02 0.02 0.03 0.02 0.02 0.02 0.02 0.02 0.02 0.03 0.03 0.03 0.02 0.02 0.03 0.05 0.06 0.04 0.04 0.04 0.06 0.06
0.01 0.01 0.01 0.01 0.02 0.02 0.01 0.00 0.00 0.01 0.02 0.05 0.04 0.03 0.02 0.01 0.02 0.02 0.02 0.02 0.02 0.02 0.02 0.01 0.02 0.02 0.02 0.02 0.02 0.02 0.02 0.02 0.03 0.02 0.02 0.02 0.02 0.02 0.02 0.03 0.03 0.04 0.05 0.06 0.04 0.03 0.03 0.05 0.06
0.02 0.01 0.00 0.01 0.00 0.01 0.02 0.01 0.01 0.01 0.02 0.07 0.07 0.04 0.02 0.02 0.01 0.02 0.02 0.03 0.03 0.03 0.02 0.01 0.01 0.01 0.02 0.02 0.02 0.02 0.02 0.02 0.02 0.02 0.02 0.02 0.02 0.02 0.02 0.02 0.03 0.04 0.05 0.05 0.05 0.03 0.03 0.04 0.05
0.04 0.01 0.00 0.00 0.00 0.00 0.01 0.02 0.01 0.01 0.01 0.05 0.09 0.07 0.03 0.02 0.02 0.02 0.03 0.04 0.05 0.05 0.05 0.03 0.01 0.01 0.01 0.02 0.02 0.02 0.02 0.02 0.01 0.02 0.02 0.01 0.01 0.02 0.02 0.02 0.02 0.04 0.05 0.04 0.05 0.03 0.03 0.04 0.05
0.03 0.04 0.01 0.01 0.01 0.00 0.01 0.01 0.01 0.01 0.01 0.03 0.08 0.08 0.05 0.02 0.03 0.03 0.03 0.04 0.06 0.07 0.07 0.06 0.02 0.02 0.02 0.02 0.02 0.02 0.02 0.02 0.02 0.01 0.01 0.01 0.01 0.01 0.02 0.02 0.03 0.04 0.05 0.03 0.04 0.03 0.03 0.04 0.05
0.02 0.05 0.04 0.02 0.01 0.00 0.01 0.01 0.01 0.00 0.00 0.02 0.04 0.06 0.06 0.03 0.03 0.04 0.04 0.05 0.06 0.09 0.09 0.07 0.05 0.03 0.02 0.02 0.02 0.03 0.02 0.02 0.02 0.01 0.01 0.01 0.01 0.01 0.02 0.02 0.03 0.05 0.04 0.03 0.03 0.03 0.04 0.05 0.05
MSLP
1012.82 1013.33 1013.98 1014.69 1015.35 1015.89 1016.25 1016.42 1016.43 1016.36 1016.30 1016.35 1016.57 1016.98 1017.57 1018.26 1018.98 1019.62 1020.12 1020.42 1020.54 1020.50 1020.36 1020.19 1020.05 1019.97 1019.97 1020.02 1020.09 1020.15 1020.15 1020.08 1019.93 1019.72 1019.49 1019.25 1019.03 1018.84 1018.69 1018.56 1018.46 1018.36 1018.25 1018.13 1017.99 1017.85 1017.70 1017.56 1017.41
1013.01 1013.56 1014.23 1014.92 1015.55 1016.03 1016.33 1016.44 1016.41 1016.32 1016.27 1016.35 1016.62 1017.08 1017.71 1018.44 1019.17 1019.81 1020.28 1020.56 1020.64 1020.57 1020.41 1020.23 1020.10 1020.04 1020.06 1020.15 1020.26 1020.37 1020.42 1020.41 1020.33 1020.18 1020.00 1019.80 1019.59 1019.41 1019.24 1019.08 1018.92 1018.76 1018.60 1018.43 1018.25 1018.08 1017.90 1017.74 1017.60
1013.26 1013.81 1014.44 1015.08 1015.64 1016.04 1016.28 1016.35 1016.31 1016.25 1016.26 1016.42 1016.77 1017.32 1018.01 1018.78 1019.53 1020.16 1020.62 1020.87 1020.93 1020.84 1020.67 1020.49 1020.35 1020.29 1020.32 1020.42 1020.55 1020.68 1020.77 1020.80 1020.77 1020.68 1020.53 1020.36 1020.17 1019.98 1019.78 1019.57 1019.36 1019.14 1018.91 1018.69 1018.48 1018.28 1018.10 1017.94 1017.80
1013.53 1014.04 1014.61 1015.15 1015.60 1015.92 1016.09 1016.14 1016.13 1016.14 1016.25 1016.52 1016.98 1017.62 1018.39 1019.20 1019.96 1020.59 1021.04 1021.28 1021.34 1021.25 1021.09 1020.91 1020.78 1020.72 1020.74 1020.83 1020.95 1021.08 1021.18 1021.24 1021.23 1021.18 1021.08 1020.93 1020.76 1020.55 1020.32 1020.07 1019.80 1019.52 1019.25 1018.99 1018.75 1018.53 1018.36 1018.21 1018.08
1013.76 1014.21 1014.68 1015.11 1015.45 1015.67 1015.79 1015.84 1015.88 1015.98 1016.21 1016.61 1017.19 1017.92 1018.75 1019.59 1020.36 1020.99 1021.44 1021.69 1021.76 1021.71 1021.58 1021.44 1021.33 1021.28 1021.29 1021.35 1021.45 1021.55 1021.64 1021.70 1021.71 1021.69 1021.62 1021.50 1021.35 1021.14 1020.90 1020.62 1020.31 1019.99 1019.67 1019.38 1019.13 1018.92 1018.74 1018.61 1018.49
1013.90 1014.28 1014.64 1014.94 1015.16 1015.30 1015.38 1015.44 1015.55 1015.75 1016.11 1016.63 1017.31 1018.12 1018.99 1019.85 1020.62 1021.25 1021.70 1021.97 1022.10 1022.10 1022.05 1021.97 1021.91 1021.88 1021.90 1021.94 1022.00 1022.07 1022.14 1022.18 1022.20 1022.20 1022.16 1022.08 1021.95 1021.77 1021.52 1021.23 1020.90 1020.56 1020.23 1019.92 1019.66 1019.45 1019.28 1019.15 1019.04
1013.92 1014.22 1014.47 1014.65 1014.77 1014.84 1014.90 1014.98 1015.16 1015.46 1015.93 1016.55 1017.32 1018.17 1019.05 1019.90 1020.66 1021.28 1021.74 1022.06 1022.25 1022.35 1022.40 1022.42 1022.44 1022.47 1022.50 1022.54 1022.58 1022.62 1022.65 1022.68 1022.71 1022.72 1022.71 1022.67 1022.58 1022.42 1022.20 1021.91 1021.59 1021.24 1020.90 1020.59 1020.33 1020.12 1019.95 1019.82 1019.69
1013.84 1014.05 1014.20 1014.29 1014.32 1014.34 1014.38 1014.50 1014.74 1015.13 1015.68 1016.38 1017.19 1018.06 1018.93 1019.75 1020.48 1021.08 1021.56 1021.93 1022.21 1022.42 1022.60 1022.74 1022.86 1022.97 1023.05 1023.10 1023.14 1023.16 1023.17 1023.19 1023.22 1023.25 1023.27 1023.26 1023.21 1023.09 1022.89 1022.63 1022.31 1021.97 1021.64 1021.33 1021.07 1020.85 1020.68 1020.53 1020.38
1013.68 1013.83 1013.90 1013.90 1013.87 1013.86 1013.90 1014.05 1014.34 1014.80 1015.41 1016.15 1016.97 1017.82 1018.66 1019.43 1020.12 1020.71 1021.20 1021.63 1022.00 1022.33 1022.64 1022.92 1023.16 1023.36 1023.50 1023.60 1023.65 1023.67 1023.68 1023.69 1023.72 1023.77 1023.82 1023.84 1023.82 1023.73 1023.56 1023.32 1023.03 1022.70 1022.38 1022.07 1021.80 1021.58 1021.38 1021.21 1021.02
1013.52 1013.61 1013.61 1013.57 1013.51 1013.47 1013.52 1013.70 1014.03 1014.52 1015.16 1015.90 1016.71 1017.53 1018.31 1019.03 1019.68 1020.25 1020.77 1021.25 1021.70 1022.14 1022.57 1022.98 1023.33 1023.63 1023.85 1023.99 1024.07 1024.11 1024.14 1024.16 1024.20 1024.26 1024.32 1024.37 1024.37 1024.30 1024.16 1023.95 1023.67 1023.36 1023.04 1022.73 1022.46 1022.22 1022.00 1021.79 1021.58
1013.41 1013.45 1013.43 1013.36 1013.28 1013.25 1013.31 1013.50 1013.85 1014.35 1014.98 1015.70 1016.47 1017.24 1017.97 1018.65 1019.26 1019.82 1020.36 1020.88 1021.40 1021.93 1022.46 1022.96 1023.41 1023.79 1024.08 1024.28 1024.41 1024.48 1024.52 1024.56 1024.62 1024.69 1024.76 1024.81 1024.83 1024.78 1024.65 1024.45 1024.19 1023.89 1023.58 1023.27 1022.99 1022.73 1022.49 1022.26 1022.01
1013.38 1013.41 1013.37 1013.30 1013.24 1013.22 1013.28 1013.48 1013.82 1014.30 1014.90 1015.58 1016.30 1017.02 1017.70 1018.34 1018.94 1019.50 1020.05 1020.61 1021.18 1021.76 1022.35 1022.91 1023.42 1023.86 1024.20 1024.46 1024.63 1024.74 1024.81 1024.88 1024.95 1025.02 1025.10 1025.16 1025.18 1025.13 1025.02 1024.83 1024.58 1024.30 1024.00 1023.70 1023.41 1023.14 1022.87 1022.61 1022.32
1013.42 1013.46 1013.45 1013.41 1013.36 1013.36 1013.43 1013.61 1013.92 1014.36 1014.90 1015.53 1016.19 1016.86 1017.52 1018.14 1018.73 1019.30 1019.87 1020.45 1021.05 1021.66 1022.27 1022.86 1023.39 1023.86 1024.23 1024.52 1024.74 1024.89 1025.00 1025.09 1025.18 1025.26 1025.34 1025.39 1025.40 1025.36 1025.26 1025.09 1024.86 1024.60 1024.32 1024.03 1023.74 1023.46 1023.17 1022.88 1022.56
1013.53 1013.60 1013.63 1013.62 1013.61 1013.62 1013.69 1013.85 1014.10 1014.48 1014.95 1015.50 1016.11 1016.74 1017.37 1018.00 1018.60 1019.20 1019.79 1020.39 1021.00 1021.61 1022.21 1022.78 1023.32 1023.78 1024.18 1024.49 1024.74 1024.93 1025.08 1025.20 1025.30 1025.40 1025.47 1025.52 1025.53 1025.49 1025.40 1025.25 1025.06 1024.83 1024.58 1024.31 1024.03 1023.75 1023.45 1023.12 1022.77
1013.66 1013.77 1013.84 1013.88 1013.90 1013.92 1013.97 1014.08 1014.27 1014.56 1014.95 1015.42 1015.96 1016.56 1017.18 1017.82 1018.46 1019.09 1019.71 1020.33 1020.94 1021.54 1022.12 1022.68 1023.19 1023.65 1024.05 1024.39 1024.67 1024.90 1025.08 1025.23 1025.35 1025.45 1025.53 1025.57 1025.58 1025.55 1025.47 1025.36 1025.21 1025.02 1024.81 1024.58 1024.33 1024.04 1023.73 1023.38 1022.99
1013.79 1013.93 1014.05 1014.12 1014.16 1014.17 1014.19 1014.24 1014.35 1014.53 1014.82 1015.20 1015.68 1016.24 1016.85 1017.51 1018.19 1018.86 1019.53 1020.17 1020.80 1021.39 1021.96 1022.49 1022.99 1023.45 1023.87 1024.23 1024.55 1024.82 1025.04 1025.22 1025.36 1025.46 1025.53 1025.57 1025.58 1025.56 1025.51 1025.43 1025.33 1025.20 1025.04 1024.85 1024.63 1024.36 1024.04 1023.67 1023.25
1013.92 1014.09 1014.22 1014.31 1014.34 1014.34 1014.30 1014.27 1014.27 1014.34 1014.51 1014.80 1015.20 1015.72 1016.32 1017.00 1017.71 1018.44 1019.15 1019.84 1020.49 1021.10 1021.68 1022.22 1022.73 1023.21 1023.65 1024.06 1024.42 1024.73 1024.99 1025.19 1025.35 1025.45 1025.52 1025.55 1025.55 1025.54 1025.51 1025.47 1025.42 1025.34 1025.24 1025.10 1024.91 1024.67 1024.36 1023.98 1023.54
1014.12 1014.27 1014.39 1014.46 1014.46 1014.41 1014.30 1014.17 1014.05 1014.00 1014.05 1014.23 1014.55 1015.01 1015.59 1016.28 1017.02 1017.79 1018.56 1019.29 1019.99 1020.64 1021.26 1021.84 1022.39 1022.92 1023.41 1023.88 1024.29 1024.65 1024.95 1025.18 1025.34 1025.44 1025.49 1025.51 1025.51 1025.50 1025.49 1025.48 1025.47 1025.44 1025.39 1025.30 1025.15 1024.94 1024.65 1024.28 1023.85
1014.44 1014.56 1014.63 1014.65 1014.59 1014.45 1014.25 1014.01 1013.77 1013.59 1013.51 1013.57 1013.80 1014.19 1014.74 1015.42 1016.18 1016.99 1017.80 1018.59 1019.35 1020.06 1020.74 1021.38 1022.01 1022.61 1023.18 1023.72 1024.20 1024.61 1024.94 1025.18 1025.34 1025.43 1025.47 1025.46 1025.45 1025.43 1025.43 1025.44 1025.45 1025.46 1025.45 1025.41 1025.30 1025.13 1024.87 1024.54 1024.14
1015.00 1015.04 1015.04 1014.97 1014.82 1014.58 1014.26 1013.90 1013.54 1013.23 1013.03 1012.98 1013.11 1013.43 1013.93 1014.57 1015.33 1016.15 1017.00 1017.83 1018.65 1019.43 1020.18 1020.92 1021.62 1022.31 1022.97 1023.58 1024.13 1024.58 1024.94 1025.20 1025.35 1025.42 1025.43 1025.41 1025.37 1025.34 1025.33 1025.34 1025.37 1025.40 1025.41 1025.40 1025.33 1025.20 1025.00 1024.73 1024.39
1015.85 1015.80 1015.69 1015.52 1015.26 1014.91 1014.49 1014.01 1013.53 1013.10 1012.79 1012.63 1012.66 1012.90 1013.33 1013.93 1014.66 1015.47 1016.32 1017.18 1018.04 1018.88 1019.70 1020.50 1021.30 1022.07 1022.80 1023.47 1024.07 1024.56 1024.94 1025.20 1025.34 1025.39 1025.38 1025.32 1025.26 1025.21 1025.19 1025.19 1025.21 1025.25 1025.27 1025.27 1025.23 1025.14 1025.01 1024.81 1024.55
1017.02 1016.86 1016.65 1016.37 1016.01 1015.55 1015.02 1014.44 1013.87 1013.34 1012.93 1012.69 1012.63 1012.79 1013.14 1013.67 1014.34 1015.11 1015.94 1016.79 1017.65 1018.52 1019.38 1020.23 1021.08 1021.90 1022.68 1023.40 1024.02 1024.53 1024.91 1025.16 1025.29 1025.32 1025.28 1025.21 1025.14 1025.07 1025.03 1025.01 1025.02 1025.03 1025.04 1025.04 1025.02 1024.97 1024.89 1024.78 1024.63
1018.46 1018.21 1017.91 1017.53 1017.08 1016.53 1015.92 1015.27 1014.62 1014.03 1013.55 1013.24 1013.11 1013.19 1013.47 1013.92 1014.52 1015.21 1015.97 1016.77 1017.60 1018.44 1019.29 1020.15 1021.00 1021.84 1022.62 1023.34 1023.96 1024.46 1024.83 1025.06 1025.17 1025.19 1025.15 1025.07 1024.99 1024.91 1024.86 1024.82 1024.80 1024.79 1024.77 1024.76 1024.73 1024.70 1024.67 1024.63 1024.58
1020.06 1019.76 1019.39 1018.95 1018.43 1017.83 1017.16 1016.46 1015.77 1015.14 1014.63 1014.28 1014.11 1014.13 1014.33 1014.70 1015.20 1015.79 1016.46 1017.17 1017.91 1018.68 1019.47 1020.28 1021.09 1021.88 1022.63 1023.31 1023.90 1024.36 1024.69 1024.90 1025.00 1025.02 1024.97 1024.90 1024.82 1024.75 1024.69 1024.64 1024.59 1024.54 1024.49 1024.43 1024.39 1024.36 1024.36 1024.37 1024.39
1021.72 1021.39 1021.00 1020.53 1019.97 1019.34 1018.65 1017.93 1017.23 1016.60 1016.08 1015.71 1015.51 1015.49 1015.63 1015.91 1016.31 1016.79 1017.33 1017.92 1018.54 1019.20 1019.89 1020.60 1021.32 1022.03 1022.70 1023.31 1023.82 1024.23 1024.52 1024.70 1024.78 1024.79 1024.76 1024.70 1024.64 1024.58 1024.52 1024.46 1024.38 1024.29 1024.19 1024.09 1024.01 1023.95 1023.94 1023.98 1024.05
1023.30 1022.99 1022.61 1022.13 1021.57 1020.93 1020.24 1019.52 1018.84 1018.22 1017.72 1017.36 1017.15 1017.10 1017.19 1017.40 1017.69 1018.05 1018.47 1018.91 1019.40 1019.92 1020.47 1021.06 1021.66 1022.26 1022.83 1023.34 1023.77 1024.10 1024.33 1024.46 1024.52 1024.52 1024.50 1024.46 1024.43 1024.38 1024.33 1024.26 1024.16 1024.03 1023.88 1023.72 1023.58 1023.48 1023.44 1023.47 1023.54
1024.74 1024.47 1024.11 1023.65 1023.10 1022.47 1021.78 1021.09 1020.42 1019.83 1019.36 1019.01 1018.81 1018.75 1018.79 1018.93 1019.14 1019.39 1019.67 1019.98 1020.33 1020.71 1021.13 1021.58 1022.06 1022.54 1022.99 1023.40 1023.73 1023.97 1024.13 1024.21 1024.24 1024.23 1024.21 1024.18 1024.16 1024.14 1024.09 1024.02 1023.89 1023.73 1023.53 1023.31 1023.11 1022.95 1022.85 1022.83 1022.88
1025.98 1025.76 1025.43 1025.00 1024.46 1023.83 1023.16 1022.47 1021.82 1021.26 1020.81 1020.49 1020.30 1020.22 1020.24 1020.32 1020.45 1020.60 1020.77 1020.96 1021.18 1021.44 1021.74 1022.08 1022.45 1022.82 1023.17 1023.47 1023.71 1023.87 1023.96 1023.98 1023.96 1023.92 1023.88 1023.84 1023.82 1023.80 1023.76 1023.68 1023.54 1023.34 1023.10 1022.83 1022.57 1022.34 1022.18 1022.10 1022.10
1027.04 1026.86 1026.56 1026.14 1025.59 1024.96 1024.27 1023.58 1022.94 1022.39 1021.96 1021.65 1021.46 1021.37 1021.36 1021.39 1021.45 1021.53 1021.61 1021.71 1021.84 1022.00 1022.22 1022.47 1022.76 1023.05 1023.33 1023.55 1023.71 1023.79 1023.80 1023.75 1023.67 1023.58 1023.50 1023.44 1023.40 1023.36 1023.31 1023.22 1023.07 1022.85 1022.58 1022.27 1021.95 1021.66 1021.44 1021.29 1021.22
1027.97 1027.81 1027.51 1027.07 1026.50 1025.83 1025.12 1024.41 1023.76 1023.20 1022.77 1022.46 1022.26 1022.15 1022.11 1022.10 1022.10 1022.11 1022.13 1022.16 1022.22 1022.34 1022.50 1022.72 1022.96 1023.21 1023.43 1023.60 1023.70 1023.71 1023.65 1023.53 1023.37 1023.22 1023.07 1022.97 1022.88 1022.82 1022.74 1022.64 1022.47 1022.25 1021.96 1021.62 1021.27 1020.93 1020.65 1020.44 1020.31
Thickness
5692 5692 5691 5684 5665 5645 5647 5655 5660 5660 5659 5660 5661 5660 5657 5654 5653 5651 5648 5652 5655 5658 5660 5662 5665 5667 5668 5670 5671 5673 5674 5676 5677 5679 5681 5683 5685 5686 5687 5689 5690 5691 5692 5693 5693 5694 5694 5694 5694
5687 5687 5681 5667 5648 5637 5642 5651 5653 5655 5655 5654 5653 5653 5651 5647 5644 5643 5643 5647 5649 5652 5654 5656 5659 5661 5662 5664 5665 5667 5668 5670 5671 5673 5675 5677 5679 5680 5682 5684 5685 5686 5687 5688 5688 5689 5689 5689 5689
5683 5680 5665 5649 5638 5636 5644 5650 5648 5649 5648 5648 5644 5642 5642 5639 5637 5637 5638 5641 5643 5645 5647 5650 5652 5654 5655 5657 5659 5661 5662 5663 5665 5666 5668 5670 5672 5674 5676 5678 5680 5681 5682 5683 5683 5684 5684 5684 5684
5674 5664 5651 5640 5636 5638 5642 5645 5642 5642 5641 5639 5638 5633 5631 5632 5631 5631 5633 5634 5636 5638 5640 5643 5645 5647 5648 5650 5651 5653 5655 5657 5658 5659 5661 5663 5665 5667 5670 5672 5674 5675 5677 5678 5678 5679 5679 5679 5679
5661 5649 5637 5625 5631 5634 5636 5637 5635 5635 5633 5630 5629 5627 5624 5624 5625 5625 5626 5627 5629 5630 5632 5635 5637 5639 5640 5642 5643 5645 5647 5649 5651 5653 5654 5656 5657 5660 5662 5665 5667 5669 5671 5672 5673 5674 5674 5674 5674
5643 5635 5623 5620 5626 5629 5629 5629 5628 5625 5624 5621 5619 5618 5617 5616 5617 5618 5619 5619 5621 5622 5624 5626 5628 5630 5631 5633 5635 5637 5639 5641 5643 5645 5646 5648 5650 5653 5655 5657 5660 5662 5664 5666 5667 5668 5668 5668 5668
5633 5622 5616 5617 5617 5620 5624 5621 5619 5617 5615 5613 5612 5611 5609 5608 5609 5609 5610 5611 5612 5613 5614 5617 5619 5620 5622 5624 5625 5627 5629 5631 5633 5635 5637 5640 5642 5644 5647 5650 5652 5655 5657 5659 5661 5662 5662 5662 5663
5626 5615 5610 5605 5609 5614 5616 5613 5613 5610 5608 5607 5605 5603 5602 5602 5601 5600 5600 5601 5602 5603 5604 5606 5609 5610 5612 5614 5616 5617 5619 5621 5623 5626 5628 5630 5633 5636 5639 5642 5644 5647 5650 5652 5654 5655 5655 5656 5657
5622 5605 5600 5602 5604 5609 5608 5606 5604 5603 5600 5598 5596 5597 5597 5595 5592 5591 5591 5591 5592 5593 5594 5596 5598 5600 5602 5604 5605 5607 5609 5611 5613 5615 5618 5621 5624 5627 5630 5633 5635 5638 5641 5644 5646 5647 5648 5649 5650
5607 5594 5600 5603 5601 5602 5599 5598 5595 5593 5591 5589 5588 5586 5586 5584 5584 5583 5582 5581 5582 5582 5583 5585 5587 5589 5591 5593 5594 5596 5598 5600 5603 5605 5607 5611 5614 5617 5621 5624 5626 5629 5633 5636 5638 5639 5640 5641 5642
5596 5591 5594 5594 5593 5593 5590 5588 5586 5585 5583 5584 5583 5580 5576 5575 5574 5574 5573 5572 5572 5573 5574 5575 5576 5578 5579 5581 5583 5585 5586 5589 5591 5594 5597 5600 5604 5607 5611 5614 5617 5620 5624 5626 5628 5630 5632 5633 5634
5586 5585 5586 5585 5584 5583 5581 5580 5576 5576 5581 5582 5578 5573 5569 5567 5566 5566 5565 5564 5563 5563 5564 5564 5566 5567 5568 5569 5571 5573 5575 5578 5580 5583 5586 5590 5593 5597 5600 5604 5607 5610 5613 5616 5619 5621 5623 5625 5626
5579 5578 5577 5575 5573 5572 5571 5569 5568 5569 5570 5569 5566 5562 5560 5559 5558 5557 5556 5554 5554 5553 5553 5554 5555 5556 5557 5558 5559 5562 5564 5566 5569 5573 5576 5579 5582 5585 5589 5592 5596 5600 5603 5606 5609 5612 5614 5616 5618
5570 5568 5566 5565 5564 5563 5561 5560 5558 5563 5559 5557 5555 5552 5551 5550 5548 5546 5545 5544 5544 5544 5543 5543 5544 5545 5546 5547 5548 5550 5553 5555 5558 5561 5564 5568 5571 5574 5577 5581 5585 5589 5593 5596 5599 5602 5605 5607 5610
5562 5559 5558 5557 5555 5553 5551 5551 5551 5554 5549 5548 5546 5543 5541 5540 5539 5538 5537 5536 5535 5534 5533 5533 5533 5533 5534 5535 5537 5538 5541 5544 5547 5550 5553 5556 5559 5563 5566 5570 5574 5578 5582 5585 5589 5592 5595 5598 5600
5551 5546 5545 5550 5544 5542 5541 5546 5552 5544 5540 5538 5536 5533 5531 5530 5529 5528 5526 5525 5524 5523 5522 5522 5522 5522 5523 5523 5525 5526 5529 5532 5535 5538 5541 5544 5548 5551 5555 5559 5563 5566 5571 5575 5578 5581 5585 5587 5590
5534 5530 5533 5539 5535 5530 5529 5534 5541 5534 5531 5529 5526 5523 5522 5520 5518 5517 5516 5514 5513 5512 5511 5510 5510 5510 5511 5511 5513 5514 5516 5519 5522 5525 5528 5532 5536 5539 5543 5547 5551 5555 5559 5563 5568 5570 5574 5577 5579
5528 5523 5523 5525 5525 5519 5516 5521 5529 5524 5521 5518 5515 5514 5513 5511 5510 5508 5506 5504 5503 5501 5500 5499 5498 5498 5498 5499 5500 5502 5504 5506 5509 5513 5516 5519 5522 5526 5531 5535 5539 5544 5547 5551 5556 5559 5562 5566 5569
5523 5517 5514 5517 5515 5509 5507 5512 5519 5516 5510 5508 5505 5503 5503 5502 5500 5498 5495 5494 5492 5490 5489 5488 5487 5486 5485 5486 5488 5489 5491 5493 5496 5500 5504 5507 5510 5513 5518 5522 5527 5531 5535 5540 5545 5548 5551 5555 5559
5513 5509 5506 5508 5505 5502 5495 5501 5509 5506 5503 5501 5498 5495 5494 5492 5490 5488 5486 5483 5481 5480 5479 5478 5476 5475 5475 5476 5476 5477 5478 5480 5483 5487 5491 5495 5499 5501 5505 5510 5514 5519 5523 5528 5533 5537 5540 5543 5549
5505 5499 5498 5496 5494 5490 5484 5496 5500 5499 5493 5491 5489 5487 5484 5482 5481 5479 5476 5473 5471 5469 5468 5469 5467 5466 5465 5465 5465 5465 5466 5468 5471 5475 5479 5483 5487 5490 5494 5498 5503 5507 5512 5516 5521 5526 5530 5532 5536
5498 5495 5490 5486 5476 5471 5473 5471 5492 5486 5483 5484 5479 5475 5473 5471 5471 5468 5466 5463 5461 5459 5458 5457 5457 5456 5454 5454 5454 5454 5455 5457 5459 5461 5465 5470 5474 5478 5482 5486 5491 5495 5500 5505 5510 5515 5519 5522 5525
5486 5481 5475 5471 5463 5454 5452 5452 5475 5471 5474 5477 5471 5466 5463 5461 5460 5458 5456 5454 5451 5448 5446 5446 5446 5445 5444 5443 5443 5442 5443 5445 5447 5449 5453 5458 5462 5467 5470 5474 5478 5483 5489 5494 5499 5503 5507 5511 5516
5471 5465 5457 5445 5441 5445 5446 5442 5458 5460 5466 5467 5463 5457 5453 5451 5449 5447 5445 5442 5440 5437 5435 5434 5434 5434 5433 5433 5432 5432 5432 5433 5435 5438 5442 5446 5451 5455 5459 5462 5467 5472 5477 5482 5488 5492 5496 5500 5504
5458 5452 5443 5439 5428 5440 5435 5434 5450 5458 5455 5453 5449 5446 5442 5440 5438 5436 5433 5432 5430 5427 5425 5423 5423 5423 5423 5422 5422 5422 5422 5424 5426 5428 5432 5436 5440 5443 5447 5451 5456 5461 5467 5472 5477 5481 5485 5489 5493
5443 5444 5437 5432 5426 5426 5422 5424 5446 5446 5442 5439 5436 5433 5432 5429 5427 5425 5423 5421 5418 5417 5415 5413 5413 5414 5413 5413 5414 5414 5414 5415 5417 5420 5423 5426 5430 5434 5437 5441 5445 5451 5456 5461 5466 5470 5474 5478 5482
5434 5425 5423 5411 5398 5395 5411 5416 5431 5439 5432 5428 5425 5423 5420 5418 5416 5414 5413 5411 5408 5406 5405 5404 5404 5404 5405 5405 5406 5406 5405 5405 5407 5410 5413 5417 5420 5424 5428 5431 5435 5440 5445 5450 5455 5459 5463 5467 5471
5422 5412 5401 5399 5400 5398 5407 5410 5422 5428 5424 5417 5412 5410 5410 5408 5406 5404 5402 5401 5399 5397 5396 5395 5394 5395 5395 5396 5397 5398 5397 5397 5399 5401 5404 5408 5411 5414 5418 5422 5426 5430 5435 5440 5444 5448 5453 5456 5460
5406 5403 5399 5390 5386 5386 5390 5415 5417 5413 5410 5403 5401 5400 5398 5397 5395 5393 5391 5390 5388 5387 5386 5386 5386 5386 5387 5388 5389 5389 5389 5390 5391 5393 5397 5400 5403 5405 5409 5413 5417 5421 5425 5430 5435 5439 5443 5447 5450
5397 5394 5388 5390 5382 5368 5371 5400 5404 5397 5393 5392 5392 5390 5388 5386 5384 5382 5380 5379 5378 5378 5377 5377 5377 5378 5379 5380 5381 5381 5381 5382 5384 5387 5390 5392 5395 5398 5401 5404 5408 5413 5417 5421 5426 5430 5434 5437 5440